When you browse on this site, cookies collect data to enhance your experience and personalize the content and advertising you see.
Visit our Privacy Policy to learn more. By continuing to use the site, you agree to this use of cookies and data.
  • In Sweden
  • List of Countries
  • For 7 days
  • Water Temperature
  • Weather Map
  • Weather Widgets
  • user-avatar
    Login

    Hourly Weather Popova Gora

    Today, 20 September, Friday

    Time Temperature Precipitation Wind Pressure Humidity
    00:00 +3°C° 0 mm 1 mps 748 mmHg 94%
    01:00 +3°C° 0 mm 1 mps 748 mmHg 94%
    02:00 +3°C° 0 mm 1 mps 748 mmHg 90%
    03:00 +3°C° 0 mm 1 mps 748 mmHg 90%
    04:00 +3°C° 0 mm 1 mps 748 mmHg 89%
    05:00 +3°C° 0 mm 1 mps 748 mmHg 89%
    06:00 +3°C° 0 mm 2 mps 748 mmHg 87%
    07:00 +4°C° 0 mm 2 mps 748 mmHg 86%
    08:00 +5°C° 0 mm 2 mps 748 mmHg 84%
    09:00 +5°C° 0.2 mm 3 mps 749 mmHg 80%
    10:00 +7°C° 0.2 mm 3 mps 749 mmHg 76%
    11:00 +7°C° 0.2 mm 4 mps 749 mmHg 72%
    12:00 +7°C° 0.1 mm 4 mps 749 mmHg 67%
    13:00 +8°C° 0.1 mm 4 mps 749 mmHg 62%
    14:00 +8°C° 0.1 mm 4 mps 749 mmHg 57%
    15:00 +9°C° 0 mm 3 mps 749 mmHg 60%
    16:00 +8°C° 0 mm 3 mps 749 mmHg 63%
    17:00 +8°C° 0 mm 2 mps 749 mmHg 66%
    18:00 +6°C° 0 mm 2 mps 750 mmHg 70%
    19:00 +5°C° 0 mm 1 mps 750 mmHg 75%
    20:00 +4°C° 0 mm 1 mps 750 mmHg 79%
    21:00 +4°C° 0 mm 1 mps 750 mmHg 79%
    22:00 +3°C° 0 mm 1 mps 750 mmHg 79%
    23:00 +2°C° 0 mm 2 mps 749 mmHg 80%

    Tomorrow, 21 September, Saturday

    Time Temperature Precipitation Wind Pressure Humidity
    00:00 +3°C° 0 mm 2 mps 750 mmHg 82%
    01:00 +3°C° 0 mm 2 mps 750 mmHg 85%
    02:00 +3°C° 0 mm 2 mps 750 mmHg 88%
    03:00 +3°C° 0 mm 2 mps 749 mmHg 89%
    04:00 +4°C° 0 mm 2 mps 749 mmHg 90%
    05:00 +4°C° 0 mm 2 mps 748 mmHg 91%
    06:00 +4°C° 0 mm 3 mps 748 mmHg 89%
    07:00 +4°C° 0 mm 3 mps 748 mmHg 86%
    08:00 +5°C° 0 mm 3 mps 747 mmHg 84%
    09:00 +5°C° 0 mm 3 mps 747 mmHg 83%
    10:00 +6°C° 0 mm 4 mps 747 mmHg 81%
    11:00 +6°C° 0 mm 4 mps 746 mmHg 80%
    12:00 +6°C° 0.3 mm 4 mps 746 mmHg 85%
    13:00 +7°C° 0.3 mm 3 mps 745 mmHg 89%
    14:00 +5°C° 0.3 mm 3 mps 745 mmHg 94%
    15:00 +7°C° 0.2 mm 3 mps 745 mmHg 95%
    16:00 +7°C° 0.2 mm 3 mps 744 mmHg 96%
    17:00 +8°C° 0.2 mm 2 mps 744 mmHg 97%
    18:00 +8°C° 0.7 mm 3 mps 743 mmHg 97%
    19:00 +9°C° 0.7 mm 3 mps 743 mmHg 97%
    20:00 +10°C° 0.7 mm 4 mps 742 mmHg 97%
    21:00 +10°C° 0.4 mm 4 mps 742 mmHg 96%
    22:00 +10°C° 0.4 mm 4 mps 742 mmHg 96%
    23:00 +9°C° 0.4 mm 5 mps 742 mmHg 95%

    Day after tomorrow, 22 September, Sunday

    Time Temperature Precipitation Wind Pressure Humidity
    00:00 +10°C° 0.6 mm 4 mps 742 mmHg 95%
    01:00 +10°C° 0.6 mm 4 mps 742 mmHg 94%
    02:00 +8°C° 0.6 mm 4 mps 742 mmHg 93%
    03:00 +8°C° 0.2 mm 4 mps 742 mmHg 94%
    04:00 +7°C° 0.2 mm 4 mps 742 mmHg 94%
    05:00 +7°C° 0.2 mm 4 mps 742 mmHg 94%
    06:00 +7°C° 0.1 mm 4 mps 742 mmHg 92%
    07:00 +7°C° 0.1 mm 4 mps 743 mmHg 89%
    08:00 +7°C° 0.1 mm 5 mps 743 mmHg 87%
    09:00 +7°C° 0.1 mm 5 mps 743 mmHg 84%
    10:00 +7°C° 0.1 mm 5 mps 744 mmHg 80%
    11:00 +7°C° 0.1 mm 5 mps 744 mmHg 76%
    12:00 +8°C° 0.1 mm 6 mps 745 mmHg 70%
    13:00 +8°C° 0.1 mm 6 mps 745 mmHg 65%
    14:00 +8°C° 0.1 mm 7 mps 746 mmHg 60%
    15:00 +7°C° 0.1 mm 6 mps 746 mmHg 63%
    16:00 +7°C° 0.1 mm 5 mps 747 mmHg 67%
    17:00 +6°C° 0.1 mm 4 mps 747 mmHg 70%
    18:00 +5°C° 0 mm 3 mps 748 mmHg 74%
    19:00 +3°C° 0 mm 3 mps 749 mmHg 79%
    20:00 +3°C° 0 mm 2 mps 750 mmHg 84%
    21:00 +3°C° 0 mm 2 mps 750 mmHg 86%
    22:00 +2°C° 0 mm 2 mps 750 mmHg 88%
    23:00 +1°C° 0 mm 2 mps 751 mmHg 91%

    23 September, Monday

    Time Temperature Precipitation Wind Pressure Humidity
    00:00 +2°C° 0 mm 1 mps 751 mmHg 92%
    01:00 +2°C° 0 mm 1 mps 752 mmHg 93%
    02:00 +1°C° 0 mm 1 mps 752 mmHg 95%
    03:00 +1°C° 0 mm 1 mps 752 mmHg 95%
    04:00 +1°C° 0 mm 1 mps 752 mmHg 96%
    05:00 0°C° 0 mm 1 mps 753 mmHg 96%
    06:00 +2°C° 0 mm 1 mps 753 mmHg 91%
    07:00 +3°C° 0 mm 1 mps 753 mmHg 86%
    08:00 +4°C° 0 mm 1 mps 753 mmHg 80%
    09:00 +5°C° 0 mm 1 mps 753 mmHg 74%
    10:00 +6°C° 0 mm 2 mps 753 mmHg 67%
    11:00 +7°C° 0 mm 2 mps 753 mmHg 60%
    12:00 +8°C° 0 mm 2 mps 753 mmHg 60%
    13:00 +8°C° 0 mm 2 mps 753 mmHg 60%
    14:00 +8°C° 0 mm 2 mps 752 mmHg 60%
    15:00 +7°C° 0.1 mm 2 mps 752 mmHg 64%
    16:00 +7°C° 0.1 mm 2 mps 752 mmHg 69%
    17:00 +7°C° 0.1 mm 1 mps 752 mmHg 73%
    18:00 +6°C° 0 mm 1 mps 752 mmHg 77%
    19:00 +5°C° 0 mm 1 mps 752 mmHg 81%
    20:00 +4°C° 0 mm 1 mps 752 mmHg 85%
    21:00 +3°C° 0 mm 1 mps 752 mmHg 87%
    22:00 +3°C° 0 mm 1 mps 752 mmHg 89%
    23:00 +2°C° 0 mm 1 mps 752 mmHg 91%

    24 September, Tuesday

    Time Temperature Precipitation Wind Pressure Humidity
    00:00 +2°C° 0 mm 1 mps 752 mmHg 92%
    01:00 +1°C° 0 mm 1 mps 753 mmHg 93%
    02:00 +1°C° 0 mm 1 mps 753 mmHg 93%
    03:00 +1°C° 0 mm 1 mps 753 mmHg 94%
    04:00 0°C° 0 mm 1 mps 752 mmHg 94%
    05:00 0°C° 0 mm 1 mps 752 mmHg 94%
    06:00 +2°C° 0 mm 1 mps 752 mmHg 90%
    07:00 +3°C° 0 mm 1 mps 752 mmHg 86%
    08:00 +4°C° 0 mm 1 mps 752 mmHg 81%
    09:00 +6°C° 0 mm 1 mps 752 mmHg 74%
    10:00 +8°C° 0 mm 1 mps 752 mmHg 66%
    11:00 +9°C° 0 mm 1 mps 752 mmHg 58%
    12:00 +9°C° 0 mm 1 mps 752 mmHg 57%
    13:00 +10°C° 0 mm 1 mps 752 mmHg 56%
    14:00 +9°C° 0 mm 2 mps 751 mmHg 54%
    15:00 +9°C° 0.1 mm 1 mps 751 mmHg 60%
    16:00 +8°C° 0.1 mm 1 mps 751 mmHg 66%
    17:00 +8°C° 0.1 mm 1 mps 751 mmHg 71%
    18:00 +6°C° 0 mm 1 mps 751 mmHg 75%
    19:00 +5°C° 0 mm 1 mps 751 mmHg 78%
    20:00 +3°C° 0 mm 0 mps 751 mmHg 82%
    21:00 +2°C° 0 mm 0 mps 751 mmHg 84%
    22:00 +2°C° 0 mm 0 mps 751 mmHg 86%
    23:00 +1°C° 0 mm 0 mps 751 mmHg 87%

    25 September, Wednesday

    Time Temperature Precipitation Wind Pressure Humidity
    00:00 +1°C° 0 mm 0 mps 751 mmHg 89%
    01:00 +1°C° 0 mm 0 mps 751 mmHg 90%
    02:00 0°C° 0 mm 0 mps 751 mmHg 92%
    03:00 0°C° 0 mm 0 mps 751 mmHg 92%
    04:00 0°C° 0 mm 0 mps 751 mmHg 92%
    05:00 0°C° 0 mm 0 mps 751 mmHg 92%
    06:00 +1°C° 0 mm 0 mps 751 mmHg 87%
    07:00 +2°C° 0 mm 0 mps 751 mmHg 81%
    08:00 +3°C° 0 mm 0 mps 752 mmHg 75%
    09:00 +6°C° 0 mm 1 mps 752 mmHg 68%
    10:00 +7°C° 0 mm 1 mps 752 mmHg 61%
    11:00 +8°C° 0 mm 1 mps 752 mmHg 55%
    12:00 +9°C° 0 mm 1 mps 752 mmHg 54%
    13:00 +9°C° 0 mm 1 mps 752 mmHg 53%
    14:00 +9°C° 0 mm 1 mps 752 mmHg 52%
    15:00 +8°C° 0 mm 1 mps 752 mmHg 57%
    16:00 +8°C° 0 mm 1 mps 752 mmHg 61%
    17:00 +7°C° 0 mm 1 mps 752 mmHg 66%
    18:00 +5°C° 0 mm 0 mps 752 mmHg 71%
    19:00 +3°C° 0 mm 0 mps 752 mmHg 76%
    20:00 +2°C° 0 mm 0 mps 752 mmHg 81%
    21:00 +1°C° 0 mm 0 mps 753 mmHg 83%
    22:00 +2°C° 0 mm 1 mps 753 mmHg 84%
    23:00 +1°C° 0 mm 1 mps 753 mmHg 86%
    Show more